Weather History for Champaign, IL

Change the Weather History Date:

Tuesday, September 6, 2011

  Actual Average Record
Temperature  
Mean Temperature 60 °F 69 °F  
Max Temperature 72 °F 81 °F 93 °F (1998)
Min Temperature 48 °F 57 °F 33 °F (1996)
Degree Days  
Heating Degree Days 5 1  
Month to date heating degree days 8 3  
Since 1 July heating degree days 8 12  
Cooling Degree Days 0 5  
Month to date cooling degree days 59 32  
Year to date cooling degree days 1189 859  
Growing Degree Days 10 (Base 50)    
Moisture  
Dew Point 45 °F    
Average Humidity 62    
Maximum Humidity 86    
Minimum Humidity 38    
Precipitation  
Precipitation 0.00 in 0.12 in 0.37 in (2007)
Month to date precipitation 0.06 0.80  
Year to date precipitation 21.39 28.08  
Sea Level Pressure  
Sea Level Pressure 30.10 in    
Wind  
Wind Speed 12 mph (NNE)    
Max Wind Speed 21 mph    
Max Gust Speed 30 mph    
Visibility 10 miles    
Events      
T = Trace of Precipitation, MM = Missing Value Source: NWS Daily Summary

Daily Weather History Graph

Daily Weather History Graph

Search for Another Location

Airport:

Trip Planner

Search our weather history database for the weather conditions in past years. The results will help you decide how hot, cold, wet, or windy it might be!

Date:

Astronomy

Sep. 06, 2011 Rise Set
Actual Time 6:25 AM CDT 7:17 PM CDT
Civil Twilight 5:57 AM CDT 7:44 PM CDT
Nautical Twilight 5:25 AM CDT 8:17 PM CDT
Astronomical Twilight 4:51 AM CDT 8:50 PM CDT
Moon 3:52 PM CDT (9/6) 12:39 AM CDT (9/6)
Length of Visible Light 13h 46m
Length of Day
12h 51m
Waxing Gibbous, 71% of the Moon is Illuminated
Sep 6
Waxing Gibbous
Sep 12
Full
Sep 20
Last Quarter
Sep 27
New
Oct 3
First Quarter

Hourly Weather History & Observations

Time (CDT) Temp. Dew Point Humidity Pressure Visibility Wind Dir Wind Speed Gust Speed Precip Events Conditions
12:53 AM 51.1 °F 45.0 °F 80% 30.08 in 10.0 mi North 8.1 mph - N/A   Clear
1:53 AM 50.0 °F 45.0 °F 83% 30.08 in 10.0 mi NNE 9.2 mph - N/A   Clear
2:53 AM 50.0 °F 45.0 °F 83% 30.09 in 10.0 mi NNE 6.9 mph - N/A   Clear
3:53 AM 48.9 °F 45.0 °F 86% 30.09 in 10.0 mi NNE 8.1 mph - N/A   Clear
4:53 AM 48.9 °F 44.1 °F 83% 30.09 in 10.0 mi NNE 8.1 mph - N/A   Clear
5:53 AM 48.0 °F 43.0 °F 83% 30.10 in 10.0 mi NNE 11.5 mph - N/A   Clear
6:53 AM 48.0 °F 42.1 °F 80% 30.11 in 10.0 mi NNE 11.5 mph - N/A   Clear
7:53 AM 52.0 °F 42.1 °F 69% 30.13 in 10.0 mi NNE 15.0 mph 23.0 mph N/A   Clear
8:53 AM 55.9 °F 43.0 °F 62% 30.13 in 10.0 mi NNE 15.0 mph 21.9 mph N/A   Clear
9:53 AM 60.1 °F 44.1 °F 55% 30.14 in 10.0 mi NNE 12.7 mph 20.7 mph N/A   Clear
10:53 AM 63.0 °F 44.1 °F 50% 30.14 in 10.0 mi NNE 16.1 mph 23.0 mph N/A   Partly Cloudy
11:53 AM 64.9 °F 44.1 °F 47% 30.13 in 10.0 mi ENE 12.7 mph 24.2 mph N/A   Clear
12:53 PM 66.9 °F 44.1 °F 44% 30.11 in 10.0 mi NNE 13.8 mph 25.3 mph N/A   Partly Cloudy
1:53 PM 70.0 °F 44.1 °F 39% 30.08 in 10.0 mi North 18.4 mph 24.2 mph N/A   Clear
2:53 PM 71.1 °F 45.0 °F 39% 30.06 in 10.0 mi NNE 13.8 mph 23.0 mph N/A   Clear
3:53 PM 71.1 °F 45.0 °F 39% 30.06 in 10.0 mi NE 17.3 mph 26.5 mph N/A   Clear
4:53 PM 71.1 °F 46.0 °F 41% 30.06 in 10.0 mi NNE 16.1 mph 24.2 mph N/A   Clear
5:53 PM 69.8 °F 46.4 °F 43% 30.06 in 10.0 mi NNE 10.4 mph 21.9 mph N/A   Clear
6:53 PM 64.4 °F 48.2 °F 56% 30.08 in 10.0 mi North 11.5 mph 19.6 mph N/A   Clear
7:53 PM 60.8 °F 48.2 °F 63% 30.10 in 10.0 mi North 11.5 mph - N/A   Scattered Clouds
8:53 PM 59.0 °F 48.9 °F 69% 30.12 in 10.0 mi North 11.5 mph 18.4 mph N/A   Partly Cloudy
9:53 PM 57.2 °F 48.2 °F 72% 30.12 in 10.0 mi North 11.5 mph - N/A   Clear
10:53 PM 55.9 °F 48.9 °F 77% 30.12 in 10.0 mi North 10.4 mph - N/A   Clear
11:53 PM 55.0 °F 48.9 °F 80% 30.11 in 10.0 mi North 9.2 mph - N/A   Clear